Time,TemperatureF,DewpointF,PressureIn,WindDirection,WindDirectionDegrees,WindSpeedMPH,WindSpeedGustMPH,Humidity,HourlyPrecipIn,Conditions,Clouds,dailyrainin,SoftwareType,DateUTC
2013-07-22 00:06:00,75.7,71.3,29.91,SSE,157,0.0,-999.0,86,0.00,,,0.00,open2300 v1.10,2013-07-22 05:06:00,
2013-07-22 00:14:00,75.7,71.3,29.91,SSE,157,0.0,-999.0,86,0.00,,,0.00,open2300 v1.10,2013-07-22 05:14:00,
2013-07-22 00:20:00,75.7,71.3,29.91,SSE,157,0.0,-999.0,86,0.00,,,0.00,open2300 v1.10,2013-07-22 05:20:00,
2013-07-22 00:29:00,75.7,71.3,29.91,SSE,157,0.0,-999.0,86,0.00,,,0.00,open2300 v1.10,2013-07-22 05:29:00,
2013-07-22 00:35:00,75.6,71.1,29.91,SSE,157,0.0,-999.0,86,0.00,,,0.00,open2300 v1.10,2013-07-22 05:35:00,
2013-07-22 00:44:00,75.9,71.5,29.90,SSW,202,0.0,-999.0,86,0.00,,,0.00,open2300 v1.10,2013-07-22 05:44:00,
2013-07-22 00:50:00,76.1,71.6,29.91,SSE,157,0.0,-999.0,86,0.00,,,0.00,open2300 v1.10,2013-07-22 05:50:00,
2013-07-22 00:59:00,76.6,72.1,29.90,SSE,157,0.0,-999.0,86,0.00,,,0.00,open2300 v1.10,2013-07-22 05:59:00,
2013-07-22 01:08:00,77.0,72.1,29.90,SSE,157,0.0,-999.0,85,0.00,,,0.00,open2300 v1.10,2013-07-22 06:08:00,
2013-07-22 01:14:00,77.2,72.3,29.90,South,180,0.0,-999.0,85,0.00,,,0.00,open2300 v1.10,2013-07-22 06:14:00,
2013-07-22 01:20:00,77.4,72.1,29.91,WNW,292,0.0,-999.0,84,0.00,,,0.00,open2300 v1.10,2013-07-22 06:20:00,
2013-07-22 01:29:00,77.5,72.0,29.90,SE,135,0.0,-999.0,83,0.00,,,0.00,open2300 v1.10,2013-07-22 06:29:00,
2013-07-22 01:35:00,77.5,72.0,29.90,SSE,157,0.0,-999.0,83,0.00,,,0.00,open2300 v1.10,2013-07-22 06:35:00,
2013-07-22 01:44:00,77.5,72.0,29.90,SSE,157,0.0,-999.0,83,0.00,,,0.00,open2300 v1.10,2013-07-22 06:44:00,
2013-07-22 01:50:00,77.5,72.0,29.89,SSE,157,0.0,-999.0,83,0.00,,,0.00,open2300 v1.10,2013-07-22 06:50:00,
2013-07-22 01:59:00,77.5,71.6,29.89,SSE,157,0.0,-999.0,82,0.00,,,0.00,open2300 v1.10,2013-07-22 06:59:00,
2013-07-22 02:06:00,77.5,71.6,29.89,SSE,157,0.0,-999.0,82,0.00,,,0.00,open2300 v1.10,2013-07-22 07:06:00,
2013-07-22 02:14:00,77.5,71.6,29.88,South,180,0.0,-999.0,82,0.00,,,0.00,open2300 v1.10,2013-07-22 07:14:00,
2013-07-22 02:20:00,77.4,71.4,29.88,SSE,157,0.0,-999.0,82,0.00,,,0.00,open2300 v1.10,2013-07-22 07:20:00,
2013-07-22 02:29:00,77.4,71.4,29.88,SW,225,0.0,-999.0,82,0.00,,,0.00,open2300 v1.10,2013-07-22 07:29:00,
2013-07-22 02:35:00,77.4,71.4,29.88,SSW,202,0.0,-999.0,82,0.00,,,0.00,open2300 v1.10,2013-07-22 07:35:00,
2013-07-22 02:44:00,77.4,71.4,29.88,NW,315,0.0,-999.0,82,0.00,,,0.00,open2300 v1.10,2013-07-22 07:44:00,
2013-07-22 02:50:00,77.4,71.4,29.88,SE,135,0.0,-999.0,82,0.00,,,0.00,open2300 v1.10,2013-07-22 07:50:00,
2013-07-22 02:59:00,77.5,71.6,29.88,WNW,292,0.0,-999.0,82,0.00,,,0.00,open2300 v1.10,2013-07-22 07:59:00,
2013-07-22 03:07:00,77.5,71.6,29.89,West,270,0.0,-999.0,82,0.00,,,0.00,open2300 v1.10,2013-07-22 08:07:00,
2013-07-22 03:14:00,77.5,71.6,29.89,SSE,157,0.0,-999.0,82,0.00,,,0.00,open2300 v1.10,2013-07-22 08:14:00,
2013-07-22 03:20:00,77.5,71.6,29.89,SSE,157,0.0,-999.0,82,0.00,,,0.00,open2300 v1.10,2013-07-22 08:20:00,
2013-07-22 03:29:00,77.5,71.6,29.89,SE,135,0.0,-999.0,82,0.00,,,0.00,open2300 v1.10,2013-07-22 08:29:00,
2013-07-22 03:35:00,77.5,71.6,29.89,WNW,292,0.0,-999.0,82,0.00,,,0.00,open2300 v1.10,2013-07-22 08:35:00,
2013-07-22 03:44:00,77.5,71.6,29.90,SSE,157,0.0,-999.0,82,0.00,,,0.00,open2300 v1.10,2013-07-22 08:44:00,
2013-07-22 03:50:00,77.4,71.4,29.90,SSE,157,0.0,-999.0,82,0.00,,,0.00,open2300 v1.10,2013-07-22 08:50:00,
2013-07-22 03:59:00,77.4,71.4,29.89,South,180,0.0,-999.0,82,0.00,,,0.00,open2300 v1.10,2013-07-22 08:59:00,
2013-07-22 04:06:00,77.2,71.6,29.89,SSE,157,0.0,-999.0,83,0.00,,,0.00,open2300 v1.10,2013-07-22 09:06:00,
2013-07-22 04:14:00,77.0,71.4,29.89,SSE,157,0.0,-999.0,83,0.00,,,0.00,open2300 v1.10,2013-07-22 09:14:00,
2013-07-22 04:20:00,76.8,71.2,29.89,SSE,157,0.0,-999.0,83,0.00,,,0.00,open2300 v1.10,2013-07-22 09:20:00,
2013-07-22 04:29:00,76.8,71.2,29.89,SSE,157,0.0,-999.0,83,0.00,,,0.00,open2300 v1.10,2013-07-22 09:29:00,
2013-07-22 04:35:00,76.8,71.2,29.89,NNE,22,0.0,-999.0,83,0.00,,,0.00,open2300 v1.10,2013-07-22 09:35:00,
2013-07-22 04:44:00,76.8,71.6,29.89,SSE,157,0.0,-999.0,84,0.00,,,0.00,open2300 v1.10,2013-07-22 09:44:00,
2013-07-22 04:50:00,76.6,71.4,29.89,SSE,157,0.0,-999.0,84,0.00,,,0.00,open2300 v1.10,2013-07-22 09:50:00,
2013-07-22 04:59:00,76.6,71.4,29.89,SSE,157,0.0,-999.0,84,0.00,,,0.00,open2300 v1.10,2013-07-22 09:59:00,
2013-07-22 05:06:00,76.6,71.4,29.89,SSE,157,0.0,-999.0,84,0.00,,,0.00,open2300 v1.10,2013-07-22 10:06:00,
2013-07-22 05:14:00,76.3,71.1,29.89,South,180,0.0,-999.0,84,0.00,,,0.00,open2300 v1.10,2013-07-22 10:14:00,
2013-07-22 05:20:00,76.3,71.1,29.90,SE,135,0.0,-999.0,84,0.00,,,0.00,open2300 v1.10,2013-07-22 10:20:00,
2013-07-22 05:29:00,76.3,71.1,29.89,SE,135,0.0,-999.0,84,0.00,,,0.00,open2300 v1.10,2013-07-22 10:29:00,
2013-07-22 05:35:00,76.3,71.1,29.89,SSE,157,0.0,-999.0,84,0.00,,,0.00,open2300 v1.10,2013-07-22 10:35:00,
2013-07-22 05:44:00,76.3,71.1,29.89,WNW,292,0.0,-999.0,84,0.00,,,0.00,open2300 v1.10,2013-07-22 10:44:00,
2013-07-22 05:50:00,76.3,71.1,29.89,SSE,157,0.0,-999.0,84,0.00,,,0.00,open2300 v1.10,2013-07-22 10:50:00,
2013-07-22 05:59:00,76.1,70.9,29.89,SSE,157,0.0,-999.0,84,0.00,,,0.00,open2300 v1.10,2013-07-22 10:59:00,
2013-07-22 06:06:00,76.1,70.9,29.89,South,180,0.0,-999.0,84,0.00,,,0.00,open2300 v1.10,2013-07-22 11:06:00,
2013-07-22 06:14:00,76.1,71.3,29.89,SSE,157,0.0,-999.0,85,0.00,,,0.00,open2300 v1.10,2013-07-22 11:14:00,
2013-07-22 06:20:00,75.9,71.1,29.89,SE,135,0.0,-999.0,85,0.00,,,0.00,open2300 v1.10,2013-07-22 11:20:00,
2013-07-22 06:29:00,75.9,71.1,29.89,SE,135,0.0,-999.0,85,0.00,,,0.00,open2300 v1.10,2013-07-22 11:29:00,
2013-07-22 06:35:00,76.1,71.3,29.89,SSE,157,0.0,-999.0,85,0.00,,,0.00,open2300 v1.10,2013-07-22 11:35:00,
2013-07-22 06:44:00,76.1,71.3,29.90,SSE,157,0.0,-999.0,85,0.00,,,0.00,open2300 v1.10,2013-07-22 11:44:00,
2013-07-22 06:50:00,76.3,71.5,29.90,SE,135,0.0,-999.0,85,0.00,,,0.00,open2300 v1.10,2013-07-22 11:50:00,
2013-07-22 06:59:00,76.3,71.5,29.90,SW,225,0.0,-999.0,85,0.00,,,0.00,open2300 v1.10,2013-07-22 11:59:00,
2013-07-22 07:06:00,76.3,71.5,29.90,SSE,157,0.0,-999.0,85,0.00,,,0.00,open2300 v1.10,2013-07-22 12:06:00,
2013-07-22 07:14:00,76.5,71.6,29.91,NW,315,0.0,-999.0,85,0.00,,,0.00,open2300 v1.10,2013-07-22 12:14:00,
2013-07-22 07:20:00,76.5,71.6,29.91,NW,315,0.0,-999.0,85,0.00,,,0.00,open2300 v1.10,2013-07-22 12:20:00,
2013-07-22 07:29:00,76.8,72.0,29.90,SE,135,0.0,-999.0,85,0.00,,,0.00,open2300 v1.10,2013-07-22 12:29:00,
2013-07-22 07:35:00,76.8,72.0,29.91,SSE,157,0.0,-999.0,85,0.00,,,0.00,open2300 v1.10,2013-07-22 12:35:00,
2013-07-22 07:44:00,77.2,72.3,29.91,WNW,292,0.0,-999.0,85,0.00,,,0.00,open2300 v1.10,2013-07-22 12:44:00,
2013-07-22 07:50:00,77.4,72.5,29.91,WNW,292,0.0,-999.0,85,0.00,,,0.00,open2300 v1.10,2013-07-22 12:50:00,
2013-07-22 07:59:00,77.5,72.7,29.91,SSE,157,0.0,-999.0,85,0.00,,,0.00,open2300 v1.10,2013-07-22 12:59:00,
2013-07-22 08:06:00,77.7,72.5,29.91,SSW,202,0.0,-999.0,84,0.00,,,0.00,open2300 v1.10,2013-07-22 13:06:00,
2013-07-22 08:14:00,77.9,72.7,29.92,SSE,157,0.0,-999.0,84,0.00,,,0.00,open2300 v1.10,2013-07-22 13:14:00,
2013-07-22 08:20:00,77.9,72.7,29.92,SSE,157,0.0,-999.0,84,0.00,,,0.00,open2300 v1.10,2013-07-22 13:20:00,
2013-07-22 08:29:00,78.1,72.5,29.92,SSE,157,0.0,-999.0,83,0.00,,,0.00,open2300 v1.10,2013-07-22 13:29:00,
2013-07-22 08:35:00,78.3,72.7,29.93,SSE,157,0.0,-999.0,83,0.00,,,0.00,open2300 v1.10,2013-07-22 13:35:00,
2013-07-22 08:44:00,78.3,72.7,29.92,SSE,157,0.0,-999.0,83,0.00,,,0.00,open2300 v1.10,2013-07-22 13:44:00,
2013-07-22 08:50:00,78.4,72.9,29.92,SSE,157,0.0,-999.0,83,0.00,,,0.00,open2300 v1.10,2013-07-22 13:50:00,
2013-07-22 08:59:00,78.4,72.9,29.93,SSE,157,0.0,-999.0,83,0.00,,,0.00,open2300 v1.10,2013-07-22 13:59:00,
2013-07-22 09:06:00,78.4,72.9,29.93,SE,135,0.0,-999.0,83,0.00,,,0.00,open2300 v1.10,2013-07-22 14:06:00,
2013-07-22 09:14:00,78.4,72.9,29.93,SE,135,0.0,-999.0,83,0.00,,,0.00,open2300 v1.10,2013-07-22 14:14:00,
2013-07-22 09:20:00,78.3,72.7,29.94,East,90,0.0,-999.0,83,0.00,,,0.00,open2300 v1.10,2013-07-22 14:20:00,
2013-07-22 09:29:00,78.1,72.5,29.96,ESE,112,0.0,-999.0,83,0.00,,,0.00,open2300 v1.10,2013-07-22 14:29:00,
2013-07-22 09:35:00,77.2,70.9,29.95,NE,45,0.0,-999.0,81,0.00,,,0.00,open2300 v1.10,2013-07-22 14:35:00,
2013-07-22 09:44:00,74.7,68.5,29.96,North,0,0.0,-999.0,81,0.20,,,0.20,open2300 v1.10,2013-07-22 14:44:00,
2013-07-22 09:50:00,73.0,67.6,29.96,SSE,157,0.0,-999.0,83,0.49,,,0.49,open2300 v1.10,2013-07-22 14:50:00,
2013-07-22 17:38:00,80.6,72.8,29.90,SSE,157,0.0,-999.0,77,0.00,,,1.10,open2300 v1.10,2013-07-22 22:38:00,
2013-07-22 17:44:00,80.4,73.0,29.90,SSE,157,0.0,-999.0,78,0.00,,,1.10,open2300 v1.10,2013-07-22 22:44:00,
2013-07-22 17:53:00,80.1,73.0,29.90,SSE,157,0.0,-999.0,79,0.00,,,1.10,open2300 v1.10,2013-07-22 22:53:00,
2013-07-22 18:00:00,79.9,72.8,29.90,SSE,157,0.0,-999.0,79,0.00,,,1.10,open2300 v1.10,2013-07-22 23:00:00,
2013-07-22 18:08:00,79.5,72.9,29.90,SSE,157,0.0,-999.0,80,0.00,,,1.10,open2300 v1.10,2013-07-22 23:08:00,
2013-07-22 18:14:00,79.5,73.2,29.89,SSE,157,0.0,-999.0,81,0.00,,,1.10,open2300 v1.10,2013-07-22 23:14:00,
2013-07-22 18:23:00,79.5,73.6,29.90,SSE,157,0.0,-999.0,82,0.00,,,1.10,open2300 v1.10,2013-07-22 23:23:00,
2013-07-22 18:29:00,79.5,73.9,29.90,SSE,157,0.0,-999.0,83,0.00,,,1.10,open2300 v1.10,2013-07-22 23:29:00,
2013-07-22 18:38:00,79.5,73.9,29.90,SSE,157,0.0,-999.0,83,0.00,,,1.10,open2300 v1.10,2013-07-22 23:38:00,
2013-07-22 18:44:00,79.5,74.3,29.89,SSE,157,0.0,-999.0,84,0.00,,,1.10,open2300 v1.10,2013-07-22 23:44:00,
2013-07-22 18:53:00,79.5,74.3,29.89,SSE,157,0.0,-999.0,84,0.00,,,1.10,open2300 v1.10,2013-07-22 23:53:00,
2013-07-22 19:00:00,79.5,74.3,29.89,SSE,157,0.0,-999.0,84,0.00,,,1.10,open2300 v1.10,2013-07-23 00:00:00,
2013-07-22 19:08:00,79.5,74.3,29.90,SSE,157,0.0,-999.0,84,0.00,,,1.10,open2300 v1.10,2013-07-23 00:08:00,
2013-07-22 19:14:00,79.3,74.1,29.90,SSE,157,0.0,-999.0,84,0.00,,,1.10,open2300 v1.10,2013-07-23 00:14:00,
2013-07-22 19:23:00,79.0,73.7,29.89,SSE,157,0.0,-999.0,84,0.00,,,1.10,open2300 v1.10,2013-07-23 00:23:00,
2013-07-22 19:29:00,79.0,74.1,29.89,SSE,157,0.0,-999.0,85,0.00,,,1.10,open2300 v1.10,2013-07-23 00:29:00,
2013-07-22 19:38:00,78.6,73.8,29.89,SSE,157,0.0,-999.0,85,0.00,,,1.10,open2300 v1.10,2013-07-23 00:38:00,
2013-07-22 19:44:00,78.4,73.6,29.89,SSE,157,0.0,-999.0,85,0.00,,,1.10,open2300 v1.10,2013-07-23 00:44:00,
2013-07-22 19:53:00,78.1,73.6,29.89,SSE,157,0.0,-999.0,86,0.00,,,1.10,open2300 v1.10,2013-07-23 00:53:00,
2013-07-22 20:00:00,78.1,73.2,29.90,SSE,157,0.0,-999.0,85,0.00,,,1.10,open2300 v1.10,2013-07-23 01:00:00,
2013-07-22 20:08:00,77.7,72.9,29.90,SSE,157,0.0,-999.0,85,0.00,,,1.10,open2300 v1.10,2013-07-23 01:08:00,
2013-07-22 20:14:00,77.5,73.0,29.90,SSE,157,0.0,-999.0,86,0.00,,,1.10,open2300 v1.10,2013-07-23 01:14:00,
2013-07-22 20:23:00,77.4,72.9,29.90,SSE,157,0.0,-999.0,86,0.00,,,1.10,open2300 v1.10,2013-07-23 01:23:00,
2013-07-22 20:29:00,77.0,72.9,29.90,SSE,157,0.0,-999.0,87,0.00,,,1.10,open2300 v1.10,2013-07-23 01:29:00,
2013-07-22 20:38:00,76.6,72.5,29.91,SSE,157,0.0,-999.0,87,0.00,,,1.10,open2300 v1.10,2013-07-23 01:38:00,
2013-07-22 20:44:00,76.5,72.3,29.91,SSE,157,0.0,-999.0,87,0.00,,,1.10,open2300 v1.10,2013-07-23 01:44:00,
2013-07-22 20:53:00,76.1,72.0,29.90,SSE,157,0.0,-999.0,87,0.00,,,1.10,open2300 v1.10,2013-07-23 01:53:00,
2013-07-22 21:00:00,75.9,72.2,29.90,SSE,157,0.0,-999.0,88,0.00,,,1.10,open2300 v1.10,2013-07-23 02:00:00,
2013-07-22 21:08:00,75.7,72.0,29.90,SSE,157,0.0,-999.0,88,0.00,,,1.10,open2300 v1.10,2013-07-23 02:08:00,
2013-07-22 21:14:00,75.6,71.8,29.90,SSE,157,0.0,-999.0,88,0.00,,,1.10,open2300 v1.10,2013-07-23 02:14:00,
2013-07-22 21:23:00,75.4,71.6,29.90,SSE,157,0.0,-999.0,88,0.00,,,1.10,open2300 v1.10,2013-07-23 02:23:00,
2013-07-22 21:29:00,75.4,71.6,29.90,SSE,157,0.0,-999.0,88,0.00,,,1.10,open2300 v1.10,2013-07-23 02:29:00,
2013-07-22 21:38:00,75.0,71.6,29.91,SSE,157,0.0,-999.0,89,0.00,,,1.10,open2300 v1.10,2013-07-23 02:38:00,
2013-07-22 21:44:00,74.8,71.4,29.90,SSE,157,0.0,-999.0,89,0.00,,,1.10,open2300 v1.10,2013-07-23 02:44:00,
2013-07-22 21:53:00,74.8,71.4,29.90,SSE,157,0.0,-999.0,89,0.00,,,1.10,open2300 v1.10,2013-07-23 02:53:00,
2013-07-22 22:00:00,74.5,71.1,29.90,SSE,157,0.0,-999.0,89,0.00,,,1.10,open2300 v1.10,2013-07-23 03:00:00,
2013-07-22 22:08:00,74.5,71.1,29.90,SSE,157,0.0,-999.0,89,0.00,,,1.10,open2300 v1.10,2013-07-23 03:08:00,
2013-07-22 22:14:00,74.5,71.1,29.90,SSE,157,0.0,-999.0,89,0.00,,,1.10,open2300 v1.10,2013-07-23 03:14:00,
2013-07-22 22:23:00,74.5,71.1,29.90,SSE,157,0.0,-999.0,89,0.00,,,1.10,open2300 v1.10,2013-07-23 03:23:00,
2013-07-22 22:29:00,74.5,71.1,29.90,SSE,157,0.0,-999.0,89,0.00,,,1.10,open2300 v1.10,2013-07-23 03:29:00,
2013-07-22 22:38:00,74.1,71.1,29.90,SSE,157,0.0,-999.0,90,0.00,,,1.10,open2300 v1.10,2013-07-23 03:38:00,
2013-07-22 22:44:00,74.1,71.1,29.90,SSE,157,0.0,-999.0,90,0.00,,,1.10,open2300 v1.10,2013-07-23 03:44:00,
2013-07-22 22:53:00,74.1,71.1,29.90,SSE,157,0.0,-999.0,90,0.00,,,1.10,open2300 v1.10,2013-07-23 03:53:00,
2013-07-22 23:00:00,74.1,71.1,29.90,SSE,157,0.0,-999.0,90,0.00,,,1.10,open2300 v1.10,2013-07-23 04:00:00,
2013-07-22 23:08:00,74.1,71.1,29.90,SSE,157,0.0,-999.0,90,0.00,,,1.10,open2300 v1.10,2013-07-23 04:08:00,
2013-07-22 23:14:00,74.1,71.1,29.91,SSE,157,0.0,-999.0,90,0.00,,,1.10,open2300 v1.10,2013-07-23 04:14:00,
2013-07-22 23:23:00,74.3,71.2,29.91,SSE,157,0.0,-999.0,90,0.00,,,1.10,open2300 v1.10,2013-07-23 04:23:00,
2013-07-22 23:29:00,74.3,71.2,29.90,SSE,157,0.0,-999.0,90,0.00,,,1.10,open2300 v1.10,2013-07-23 04:29:00,
2013-07-22 23:38:00,74.5,71.7,29.91,SSE,157,0.0,-999.0,91,0.00,,,1.10,open2300 v1.10,2013-07-23 04:38:00,
2013-07-22 23:44:00,74.5,71.7,29.91,SSE,157,0.0,-999.0,91,0.00,,,1.10,open2300 v1.10,2013-07-23 04:44:00,
2013-07-22 23:53:00,74.5,71.7,29.91,SSE,157,0.0,-999.0,91,0.00,,,1.10,open2300 v1.10,2013-07-23 04:53:00,